Showing default

VELA 7/8 INTERSTAGE, 60000

Orbit data source: Space-Track

VELA 7/8 INTERSTAGE, 60000 is a payload satellite owned by USAF SSD (US) in HEO that was launched on Fri, 28 Apr 1967 UTC launched from the Air Force Eastern Test Range (AFETR). Payloads include a variety of satellites, spacecraft, and rockets equipped with specific instruments for various scientific and technological missions. These include communications satellites like Starlink; space stations such as the ISS; scientific satellites like the Hubble; Earth observation satellites from companies like Planet Labs, Umbra, and HawkEye 360; GPS; miniature CubeSats for education and research; and military/defense satellites.

Loading next visibility...
VELA 7/8 INTERSTAGE details
Identifier
60000, 1967-040G
Orbit
HEO
Last TLE update18 hours ago
Origin
Flag of USUSAF SSD (US)
ManufacturerTRW
MissionSpacecraft
Bus & MotorUnknown
Mass~0 kg wet, ~17 kg dry
Launch date (UTC)
1967-04-28 (58 years ago)
Launch vehicleUnknown
Launch site
Air Force Eastern Test Range (AFETR)
Object type
Payload
Rocket body
Debris
Shape & HBRUnknown
Radar Cross SectionRCS unknown

Expand to show TLE details & history

TLE from 18 hours ago
0 VELA 7/8 INTERSTAGE
1 60000U 67040G   24346.54481122  .00000034  00000-0  00000-0 0  9996
2 60000  18.4256 216.2985 7847644 327.5677   0.3786  0.51038210  4215
Epoch: 2024-12-11T13:04Z
Definitive object data (Epoch: 2024-12-11T13:04:31.689Z)
Latitude-10.99838°
Longitude-96.0915°
Altitude8,061.108 km
Speed7.013 km/s
True Right ascension12h 03m 06s
True Declination-10° 57' 60"
Sunlit
Object was in daylight at TLE epoch
Visualization TLE readout
Latitude11.9417°
Longitude79.99167°
Altitude106,737.428 km
Speed1.011 km/s
Apparent Right ascension23h 37m 19s
Apparent Declination9° 56' 28"
Sunlit
Object is in daylight
Visualization observer readout
Local Sidereal Time05:23:28
Azimuth275.477° WNW
Elevation8.995°
Doppler factor1
Orbital elements
Apogee altitude111,672.497 km
Perigee altitude7,858.307 km
Semi-major axis66,143.539 km
Eccentricity0.7847644
Inclination18.4256°
RAAN216.2985°
Arg. of periapsis327.5677°
True anomaly5.05945°
Mean anomaly0.3786°
Eccentric anomaly1.758°
Mean motion0.12759 °/min
BSTARUnknown
Orbital period2821.57 mins
Loading maneuver chart data...
Loading historical data...
Loading historical data...
Loading historical data...
Loading historical data...
Loading historical data...
Loading historical data...
Loading historical data...

VELA 7/8 INTERSTAGE Visibility forecast

Observer location: undefined°, undefined

Span
Click to sort rows by Start time (UTC) header in descending order
Start Az.
Max El. time (UTC)
Max El. Az.
Max El.
End time (UTC)
End Az.
554 mins2024-12-12 21:44:03.784Z94.274° ESE2024-12-13 03:25:03.784Z173.7° S36.811°2024-12-13 06:58:03.784Z226.192° WSW
|